TimeCST,TemperatureF,Dew PointF,Humidity,Sea Level PressureIn,VisibilityMPH,Wind Direction,Wind SpeedMPH,Gust SpeedMPH,PrecipitationIn,Events,Conditions,WindDirDegrees,DateUTC
1:52 AM,43.0,37.9,82,29.71,10.0,SSW,9.2,-,N/A,,Clear,200,2011-11-25 07:52:00
2:52 AM,45.0,41.0,86,29.71,10.0,SSW,11.5,-,N/A,,Clear,200,2011-11-25 08:52:00
3:52 AM,44.1,41.0,89,29.69,10.0,South,11.5,-,N/A,,Clear,190,2011-11-25 09:52:00
4:52 AM,39.9,37.9,93,29.70,8.0,South,12.7,-,N/A,,Clear,170,2011-11-25 10:52:00
5:52 AM,39.9,39.0,97,29.70,8.0,South,9.2,-,N/A,,Clear,190,2011-11-25 11:52:00
6:52 AM,37.9,37.0,97,29.70,6.0,South,6.9,-,N/A,,Clear,170,2011-11-25 12:52:00
7:52 AM,39.9,39.0,97,29.69,4.0,South,6.9,-,N/A,,Clear,190,2011-11-25 13:52:00
8:52 AM,42.1,41.0,96,29.70,4.0,South,10.4,-,N/A,,Scattered Clouds,180,2011-11-25 14:52:00
9:01 AM,44.6,42.8,93,29.69,4.0,South,9.2,-,N/A,,Mostly Cloudy,190,2011-11-25 15:01:00
9:14 AM,44.6,42.8,93,29.69,4.0,SSW,11.5,-,N/A,,Overcast,200,2011-11-25 15:14:00
10:52 AM,48.9,45.0,86,29.70,5.0,SW,17.3,25.3,N/A,,Overcast,220,2011-11-25 16:52:00
11:48 AM,50.0,44.6,82,29.65,6.0,SSW,13.8,-,N/A,,Haze,210,2011-11-25 17:48:00
11:52 AM,50.0,45.0,83,29.67,6.0,SSW,16.1,23.0,N/A,,Haze,200,2011-11-25 17:52:00
12:03 PM,50.0,44.6,82,29.66,5.0,SSW,16.1,23.0,N/A,,Haze,200,2011-11-25 18:03:00
12:42 PM,51.8,44.6,76,29.64,5.0,SSW,13.8,-,N/A,,Haze,200,2011-11-25 18:42:00
12:52 PM,51.1,45.0,80,29.65,6.0,SSW,13.8,-,N/A,,Haze,200,2011-11-25 18:52:00
1:30 PM,51.8,44.6,76,29.64,6.0,South,19.6,-,N/A,,Haze,190,2011-11-25 19:30:00
1:50 PM,51.8,44.6,76,29.62,6.0,South,18.4,-,N/A,,Haze,190,2011-11-25 19:50:00
1:52 PM,52.0,45.0,77,29.63,6.0,South,16.1,-,N/A,,Haze,190,2011-11-25 19:52:00
2:52 PM,53.1,46.0,77,29.63,6.0,South,13.8,-,N/A,,Haze,190,2011-11-25 20:52:00
3:33 PM,53.6,46.4,77,29.61,5.0,South,17.3,-,N/A,,Haze,190,2011-11-25 21:33:00
3:52 PM,52.0,45.0,77,29.63,5.0,South,17.3,-,N/A,,Haze,190,2011-11-25 21:52:00
5:29 PM,51.8,44.6,76,29.62,6.0,South,11.5,-,N/A,,Haze,180,2011-11-25 23:29:00
5:52 PM,51.1,45.0,80,29.65,6.0,South,9.2,-,N/A,,Haze,190,2011-11-25 23:52:00
6:52 PM,51.1,45.0,80,29.65,7.0,South,11.5,-,N/A,,Overcast,180,2011-11-26 00:52:00
7:19 PM,51.8,44.6,76,29.64,6.0,South,11.5,-,N/A,,Haze,180,2011-11-26 01:19:00
7:52 PM,51.1,45.0,80,29.66,6.0,South,15.0,-,N/A,,Haze,180,2011-11-26 01:52:00
8:01 PM,51.8,44.6,76,29.64,6.0,South,13.8,-,N/A,,Haze,180,2011-11-26 02:01:00
8:52 PM,50.0,45.0,83,29.65,6.0,South,13.8,-,N/A,,Haze,180,2011-11-26 02:52:00
10:27 PM,48.2,46.4,93,29.64,4.0,South,12.7,-,N/A,,Overcast,170,2011-11-26 04:27:00
10:38 PM,48.2,46.4,93,29.64,4.0,South,13.8,-,N/A,,Overcast,170,2011-11-26 04:38:00
10:52 PM,48.9,46.0,90,29.65,4.0,South,12.7,20.7,N/A,,Overcast,180,2011-11-26 04:52:00
11:52 PM,48.9,46.9,93,29.65,4.0,South,10.4,-,N/A,,Overcast,190,2011-11-26 05:52:00